Voltar ao catálogo

COSMOS 2166

AtivoNavegaçãoPO
NORAD 21780·PAYLOAD·🇷🇺 Russia

Lançado Nov 12, 1991 de Plesetsk Cosmodrome

Loading…

Próximas Passagens (próximas 24 horas)

TLE

AtualizadoSource: Space-Track

Época: Sep 14, 2026, 07:24 UTC

1 21780U 91077B   26257.30870483  .00000024  00000-0  74322-4 0  9995
2 21780  82.6026 189.4790 0003053 339.5101 188.0114 12.63450206606425

Acompanhe COSMOS 2166 em tempo real com AllMySat

Download on the App Store